Regional Weather Roundup
Issued by NWS

Home | Current Version | Previous Version | Graphics & Text | Print | Product List | Glossary On
Versions: 1 2 3 4 5 6 7 8 9 10 11 12 13 14 15 16 17 18 19 20 21 22 23 24 25 26 27 28 29 30 31 32 33 34 35 36 37 38 39 40 41 42 43 44 45 46 47 48 49 50
000
ASUS43 KDMX 240203
RWRIA

WEATHER ROUNDUP FOR IOWA
NATIONAL WEATHER SERVICE DES MOINES IA
900 PM CDT MON MAY 23 2016

NOTE: "FAIR" INDICATES FEW OR NO CLOUDS BELOW 12,000 FEET WITH NO
SIGNIFICANT WEATHER AND/OR OBSTRUCTIONS TO VISIBILITY.

* - THESE STATIONS ARE NOT NWS STATIONS...THUS NOT UNDER NWS
QUALITY CONTROL.  THEY ALSO DO NOT REPORT WEATHER SUCH
AS PRECIPITATION OR FOG.

IAZ001>003-012>014-020>022-031>034-043>046-240300-
   NORTHWEST IOWA

CITY           SKY/WX    TMP DP  RH WIND       PRES   REMARKS
CARROLL *      CLOUDY    68  63  83 S7        29.80S
CHEROKEE *     CLOUDY    65  64  98 NW3       29.79R
DENISON *      MOCLDY    64  64 100 CALM      29.77S
LE MARS *      CLOUDY    66  64  94 CALM      29.77F
ORANGE CITY *  MOCLDY    64  63  94 SW3       29.79R
SHELDON *      CLOUDY    64  61  88 S10       29.78R
SIOUX CITY       N/A     68  63  84 MISG      29.75F
SPENCER        LGT RAIN  66  62  87 SW18      29.79R
STORM LAKE *   CLEAR     66  63  88 SW14      29.79R
$$

IAZ055>058-069>071-079>083-090>094-240300-
   SOUTHWEST IOWA

CITY           SKY/WX    TMP DP  RH WIND       PRES   REMARKS
ATLANTIC *     PTCLDY    68  59  73 SE6       29.81S
AUDUBON *      CLOUDY    66  61  82 S5        29.82S
CLARINDA *       N/A     66  63  88 MISG      29.83R
COUNCIL BLFS * CLEAR     66  63  88 S12       29.78F
CRESTON *      MOCLDY    64  63  94 SE7       29.84F
HARLAN  *        N/A    N/A N/A N/A MISG        N/A
LAMONI         CLOUDY    68  62  81 SE8       29.84R
RED OAK *      CLOUDY    68  61  77 SE7       29.81R
SHENANDOAH *   CLOUDY    68  63  83 S13       29.80S
$$

IAZ047>049-059>061-072>074-084-240300-
   CENTRAL IOWA

CITY           SKY/WX    TMP DP  RH WIND       PRES   REMARKS
AMES           PTCLDY    67  60  78 S7        29.83R
ANKENY *       CLOUDY    66  63  88 CALM      29.83S
BOONE *        CLOUDY    68  61  77 S9        29.82S
CHARITON *     CLOUDY    70  61  73 CALM      29.85R
DES MOINES     CLOUDY    71  59  65 S3        29.83S
GRINNELL*      CLOUDY    72  54  53 S7        29.86R
KNOXVILLE *    CLOUDY    72  59  64 CALM      29.84R
MARSHALLTOWN   CLOUDY    70  57  63 S7        29.83R
NEWTON *       CLOUDY    72  55  56 S5        29.84R
PELLA *        MOCLDY    71  55  56 CALM      29.86R
PERRY *          N/A     68  63  83 SE10      29.82S
$$

IAZ004>006-015-016-023>025-035-036-240300-
   NORTH CENTRAL IOWA

CITY           SKY/WX    TMP DP  RH WIND       PRES   REMARKS
ALGONA *       MOCLDY    66  63  88 SE14      29.78F
CLARION *      CLOUDY    68  63  83 S13       29.81F
ESTHERVILLE    LGT RAIN  65  62  90 S8        29.78F
FORT DODGE *   CLOUDY    66  59  77 S7        29.82S
MASON CITY     CLOUDY    66  63  90 SW8       29.82S
FOREST CITY *  CLEAR     64  63  94 S8        29.81R
WEBSTER CITY * CLOUDY    68  61  77 S12       29.80F
IOWA FALLS *   MOCLDY    70  61  73 S7        29.84S
$$

IAZ007>011-017>019-026>030-037>042-050>054-066-240300-
   NORTHEAST IOWA

CITY           SKY/WX    TMP DP  RH WIND       PRES   REMARKS
CEDAR RAPIDS   PTCLDY    72  53  51 SE5       29.83F
CHARLES CITY * MOCLDY    70  66  88 S6        29.83R
CLINTON *      CLOUDY    72  48  42 S7        29.87S
DECORAH *      PTCLDY    70  61  73 S5        29.82S
DUBUQUE        CLEAR     68  47  46 SW7       29.87S
MONTICELLO *   PTCLDY    72  48  43 S5        29.85S
OELWEIN *      MOCLDY    73  55  53 S8        29.83F
WATERLOO       CLOUDY    70  56  61 S8        29.82R
$$

IAZ064-065-067-068-078-240300-
   EAST CENTRAL IOWA

CITY           SKY/WX    TMP DP  RH WIND       PRES   REMARKS
DAVENPORT      PTCLDY    70  46  42 S7        29.87S
IOWA CITY      MOCLDY    73  51  46 CALM      29.86S
MT. PLEASANT * MOCLDY    73  54  49 SE7       29.85S
MUSCATINE *    PTCLDY    73  50  43 SE6       29.85S
QUAD CITIES    MOCLDY    73  47  39 S5        29.86S
$$

IAZ062-063-075>077-085>089-095>099-240300-
   SOUTHEAST IOWA

CITY           SKY/WX    TMP DP  RH WIND       PRES   REMARKS
BURLINGTON     CLOUDY    71  51  49 SE7       29.86S
FAIRFIELD *      N/A    N/A N/A N/A MISG        N/A
FORT MADISON * CLOUDY    73  52  46 SE8       29.87S
KEOKUK *       CLOUDY    70  52  52 SE7       29.85S
OSKALOOSA *      N/A     70  52  52 SE8       29.85R
OTTUMWA        CLOUDY    69  53  56 S6        29.84R
WASHINGTON *   CLEAR     70  52  52 SE8       29.85F
$$

ABBREVIATIONS USED IN REMARKS
   TC - TEMPERATURES IN CELSIUS
  WCI - WIND CHILL INDEX
   HX - HEAT INDEX
  VSB - VISIBILITY
$$




USA.gov is the U.S. government's official web portal to all federal, state and local government web resources and services.